Regional Weather Roundup
Issued by NWS

Home | Current Version | Previous Version | Text Only | Print | Product List | Glossary On
Versions: 1 2 3 4 5 6 7 8 9 10 11 12 13 14 15 16 17 18 19 20 21 22 23 24 25 26 27 28 29 30 31 32 33 34 35 36 37 38 39 40 41 42 43 44 45 46 47 48 49 50
000
ASUS43 KMPX 291210
RWRMN
WEATHER ROUNDUP FOR MINNESOTA
NATIONAL WEATHER SERVICE TWIN CITIES/CHANHASSEN MN
700 AM CDT SUN MAR 29 2015


NOTE: "FAIR" INDICATES FEW OR NO CLOUDS BELOW 12,000 FEET WITH NO
SIGNIFICANT WEATHER AND/OR OBSTRUCTIONS TO VISIBILITY. N/A MEANS
CURRENT SKY AND/OR WEATHER CONDITIONS ARE NOT AVAILABLE.

MNZ060>063-068>070-291300-
   Twin Cities Metro

CITY           SKY/WX    TMP DP  RH WIND       PRES   REMARKS
TWIN CITIES    PTCLDY    35  30  82 S14       29.66F WCI  26
6HR MIN TEMP:  34; 6HR MAX TEMP:  37; 6HR PCP:  0.11;

ST PAUL        MOCLDY    34  30  85 S15       29.68F WCI  24
CRYSTAL        MOCLDY    35  31  85 S10       29.63F WCI  27
BLAINE         PTCLDY    36  34  93 S14       29.64F
LAKEVILLE      MOCLDY    34  30  86 S12       29.67F WCI  25
EDEN PRAIRIE   MOCLDY    36  30  79 S16G28    29.64F
6HR MIN TEMP:  36; 6HR MAX TEMP:  39; 6HR PCP:  0.07;

SOUTH ST PAUL  PTCLDY    35  32  90 S10G16    29.67F WCI  27
LAKE ELMO      MIX PCPN  34  32  93 S14       29.68F WCI  24
$$
MNZ001>005-007-008-013>017-022>024-027-028-291300-
   Northwest Minnesota

CITY           SKY/WX    TMP DP  RH WIND       PRES   REMARKS
BEMIDJI        RAIN      36  35  94 SW8       29.43S
HALLOCK        CLOUDY    36  34  93 NW28G37   29.59R
ROSEAU         LGT RAIN  39  34  81 NW20G30   29.47R
WARROAD        DRIZZLE   37  34  87 NW16G23   29.45R
THIEF RVR FALL CLOUDY    39  37  93 NW24G30   29.50R
CROOKSTON      CLOUDY    36  36 100 N32G39    29.56R
FOSSTON        CLOUDY    37  36  93 W13G18    29.47R FOG
DETROIT LAKES  RAIN      37  37 100 W5        29.47R
MOORHEAD       LGT RAIN  43  43 100 NW30G40   29.54R
PARK RAPIDS    CLOUDY    37  34  89 S8        29.45F
MAHNOMEN       CLOUDY    39  38  97 NW16      29.47R FOG
$$
MNZ006-009>011-018-025>026-291300-
   North Central Minnesota

CITY           SKY/WX    TMP DP  RH WIND       PRES   REMARKS
BAUDETTE       LGT RAIN  37  35  92 W8        29.41S FOG
FLAG ISLAND    LGT RAIN  37  36  93 NW17G26   29.42R
INTL FALLS     LGT SNOW  33  31  92 SW9       29.42S FOG     WCI  25
6HR MIN TEMP:  33; 6HR MAX TEMP:  38; 6HR PCP:  0.27;

WASKISH        DRIZZLE   37  36  93 CALM      29.43R
BIG FORK       RAIN      36  32  87 S12G18    29.44S
LONGVILLE      CLOUDY    36  34  93 S12G18    29.45F
GRAND RAPIDS   CLOUDY    34  30  86 S13G21    29.46F WCI  25
CRANE LAKE     CLOUDY    32  28  86 S8        29.47S WCI  25
ORR            MIX PCPN  32  28  86 S10       29.43S WCI  24
COOK           MIX PCPN  32  30  93 S8G20     29.47S WCI  25
WALKER         DRIZZLE   35  33  91 SW9       29.44R WCI  28
$$
MNZ012-019>021-037-291300-
   Northeast Minnesota

CITY           SKY/WX    TMP DP  RH WIND       PRES   REMARKS
DULUTH         CLOUDY    35  26  69 SW20G32   29.52F WCI  24
6HR MIN TEMP:  34; 6HR MAX TEMP:  36; 6HR PCP:  0.01;

ELY            FLURRIES  34  27  75 SW17G26   29.47F WCI  23
HIBBING        LGT RAIN  33  27  78 S9        29.48F WCI  25
EVELETH        MIX PCPN  32  28  86 S12G28    29.49F WCI  23
DULUTH HARBOR  CLOUDY    37  28  70 SW17G31   29.57F
TWO HARBORS    CLOUDY    37  28  70 SW15G22   29.53F
SILVER BAY     FLURRIES  36  25  64 S17G24    29.53F
GRAND MARAIS     N/A     35  26  69 SW15      29.58F WCI  25
G MARAIS ARPRT CLOUDY    28  19  69 S8        29.53F WCI  20
$$
MNZ029>031-032-039>041-046>048-054>057-064-291300-
   West Central Minnesota

CITY           SKY/WX    TMP DP  RH WIND       PRES   REMARKS
FERGUS FALLS   RAIN      43  41  93 W9        29.52S
WHEATON        CLOUDY    45  37  76 W22G33    29.56R
MORRIS         MOCLDY    45  37  76 W17       29.53S
ALEXANDRIA     CLOUDY    39  34  82 SW12      29.52F
ELBOW LAKE     CLOUDY    43  39  88 W18G25    29.51F
WADENA         RAIN      37  34  87 SW9       29.47S
GLENWOOD       CLOUDY    37  34  87 SW14      29.53F
APPLETON       CLEAR     45  37  76 W17       29.56S
BENSON         CLOUDY    43  36  75 W10       29.55S
ORTONVILLE     CLEAR     46  37  71 W17       29.57R
MADISON        FAIR      46  37  71 W18       29.58F
WILLMAR        CLOUDY    39  34  81 S9        29.58F
$$
MNZ033>034-036-042>043-049>051-058-059-291300-
   Central Minnesota

CITY           SKY/WX    TMP DP  RH WIND       PRES   REMARKS
ST CLOUD       CLOUDY    36  31  82 S15       29.58F
6HR MIN TEMP:  35; 6HR MAX TEMP:  38; 6HR PCP:  0.04;

SAUK CENTRE    CLOUDY    37  33  87 S12       29.53F
PAYNESVILLE    CLOUDY    34  32  91 SE13      29.56F WCI  25
AITKIN         CLOUDY    39  30  70 S15G21    29.49F
PINE RIVER     CLOUDY    36  32  87 S13       29.51F
BRAINERD       CLOUDY    36  30  79 S18G26    29.50F
STAPLES        CLOUDY    37  32  81 S13G22    29.47F
LONG PRAIRIE   CLOUDY    36  32  87 S14       29.52F
LITTLE FALLS   CLOUDY    36  32  87 S10       29.54F
LITCHFIELD     CLOUDY    37  36  93 CALM      29.59F
BUFFALO        PTCLDY    36  30  80 S14G23    29.62F
MAPLE LAKE     MOCLDY    36  33  88 S13G20    29.61F
$$
MNZ037-044-045-052-053-291300-
   East Central Minnesota

CITY           SKY/WX    TMP DP  RH WIND       PRES   REMARKS
PRINCETON      CLOUDY    37  32  81 S15G25    29.59F
MORA           CLOUDY    34  30  86 S13       29.61F WCI  25
CAMBRIDGE      MOCLDY    36  28  75 S13G18    29.59F
RUSH CITY      CLOUDY    33  30  86 S16G24    29.62F WCI  23
MOOSE LAKE     CLOUDY    34  28  80 S15G23    29.54F WCI  24
HINCKLEY       CLOUDY    34  32  93 S17       29.61F WCI  23
CLOQUET        CLOUDY    34  27  75 S20G26    29.53F WCI  22
MCGREGOR       CLOUDY    36  32  87 S16G25    29.51F
$$
MNZ071>073-080-081-089-090-097-098-291300-
   Southwest Minnesota

CITY           SKY/WX    TMP DP  RH WIND       PRES   REMARKS
MONTEVIDEO     MOCLDY    45  37  76 NW10      29.59S
GRANITE FALLS  PTCLDY    40  34  80 SW12      29.60F
CANBY          CLEAR     45  37  73 W17       29.62S
MARSHALL       CLEAR     45  34  65 W22       29.62R
REDWOOD FALLS  PTCLDY    40  34  79 SW16      29.60F
OLIVIA         PTCLDY    37  34  87 SW14      29.59F
PIPESTONE      CLEAR     39  36  87 W16       29.68R
WINDOM         CLEAR     39  34  81 SW18      29.65F
WORTHINGTON    CLEAR     39  32  75 SW12      29.70R
JACKSON        CLEAR     39  34  81 SW17G24   29.67F
TRACY          CLEAR     40  35  80 SW16G22   29.62F
SLAYTON        CLEAR     37  33  82 SW15      29.67R
$$
MNZ065>067-074>077-082>085-091>093-291300-
   South Central Minnesota

CITY           SKY/WX    TMP DP  RH WIND       PRES   REMARKS
MANKATO        PTCLDY    36  28  75 S20G25    29.67F
NEW ULM        CLOUDY    37  32  81 S16       29.63F
ST JAMES       PTCLDY    37  34  87 S17       29.66F
FAIRMONT       PTCLDY    36  30  80 S18G25    29.68S
GLENCOE        MOCLDY    37  33  87 S14G21    29.61F
FARIBAULT      PTCLDY    36  30  80 S16G22    29.69F
OWATONNA       MOCLDY    36  30  80 S21G32    29.70F
WASECA         PTCLDY    36  32  87 S22G32    29.71F
ALBERT LEA     MOCLDY    34  34 100 S14G23    29.72R WCI  24
$$
MNZ078>079-086>088-094>096-291300-
   Southeast Minnesota

CITY           SKY/WX    TMP DP  RH WIND       PRES   REMARKS
ROCHESTER      CLOUDY    33  28  81 S26G37    29.72R WCI  20
6HR MIN TEMP:  30; 6HR MAX TEMP:  33; 6HR PCP:  0.01;

RED WING       CLOUDY    36  28  75 S3        29.72F
STANTON        MOCLDY    36  30  78 S16G26    29.67F
DODGE CENTER   CLOUDY    34  30  86 S16       29.71R WCI  23
WINONA         DRIZZLE   36  30  80 S14G23    29.77F
AUSTIN         CLOUDY    34  28  80 S17       29.74R WCI  23
PRESTON        CLOUDY    31  28  85 S15G25    29.76F WCI  21
$$
ABBREVIATIONS USED IN REMARKS
   TC - TEMPERATURES IN CELSIUS
  WCI - WIND CHILL INDEX
   HX - HEAT INDEX
  VSB - VISIBILITY
$$


USA.gov is the U.S. government's official web portal to all federal, state and local government web resources and services.